Torna al catalogo

STARLINK-31166

AttivoComunicazioniVLEO
NORAD 58789·PAYLOAD·🇺🇸 United States

Lanciato Jan 15, 2024 da Cape Canaveral Space Force Station

Loading…

Prossimi Passaggi (prossime 24 ore)

TLE

AggiornatoSource: CelesTrak SupGP

Epoca: Sep 14, 2026, 22:25 UTC

1 58789C 24012C   26257.93451389  .00022384  00000+0  81143-3 0  2575
2 58789  43.0021 176.3509 0001148 276.4887 319.2876 15.27540589    19

Traccia STARLINK-31166 in tempo reale con AllMySat

Download on the App Store